Location: Williams Lake
(52.1170°N, 122.1500°W)
Time: 22:16:46
(UTC-07:00)

Daily predictions for brighter satellites

Satellite Brightness Start Highest point End
(mag) Time Altitude Azimuth Time Altitude Azimuth Time Altitude Azimuth
Cosmos 1980 3.7 19:16:43 10° SSW 19:22:20 71° ESE 19:28:00 10° NE
USA 215 4.2 19:21:18 10° ENE 19:26:42 27° SE 19:32:04 10° S
SL-16 R/B 2.7 19:23:07 10° S 19:28:16 37° ESE 19:33:27 10° NE
Cosmos 1953 3.6 19:26:27 10° SE 19:29:23 20° E 19:32:20 10° NE
Cosmos 292 Rocket 3.8 19:25:47 10° SSW 19:30:33 66° ESE 19:35:22 10° NNE
ATLAS CENTAUR R/B 4.5 19:29:41 10° S 19:35:28 40° ESE 19:51:34 10° NE
Cosmos 1378 3.1 19:31:56 10° N 19:35:42 79° E 19:39:26 10° SSE
Spot 1 4.2 19:31:44 10° SSE 19:36:24 71° ENE 19:40:49 10° NNW
Helios 1A 3.1 19:33:00 10° SE 19:37:04 54° ENE 19:41:11 10° N
SeaSat 1 4.2 19:36:12 10° E 19:37:15 11° E 19:38:19 10° ESE
Nadezhda 4 Rocket 4.5 19:31:47 10° N 19:37:44 41° ENE 19:43:35 10° SE
COSMO-SKYMED 1 2.7 19:33:24 10° NNE 19:37:47 86° WNW 19:42:07 10° SSW
ERS-1 Rocket 4.5 19:35:26 10° E 19:38:48 18° NE 19:42:12 10° N
Cosmos 1452 Rocket 3.5 19:33:43 10° NNW 19:39:00 69° ENE 19:44:15 10° SSE
Meteor 1-28 Rocket 3.4 19:35:22 10° NNE 19:39:01 48° E 19:42:37 10° S
Cosmos 1805 4.3 19:36:36 10° SE 19:39:49 24° E 19:43:02 10° NE
Cosmos 2112 Rocket 4.4 19:35:56 10° SSW 19:41:17 72° WNW 19:46:40 10° NNE
H-2A R/B 3.7 19:37:59 10° SE 19:41:21 28° ENE 19:44:43 10° N
DMSP B5D1-3 4.5 19:37:46 10° NNE 19:42:54 81° ESE 19:48:01 10° SSW
CZ-4B DEB 3.6 19:40:57 10° SE 19:43:54 31° ENE 19:46:52 10° N
Cosmos 1680 Rocket 4.3 19:40:50 10° SW 19:46:06 59° WNW 19:51:23 10° NNE
Cosmos 1707 4.5 19:43:05 10° NNW 19:46:42 38° W 19:50:16 10° SSW
Cosmos 2278 Rocket 4.3 19:42:15 10° NW 19:47:09 31° WSW 19:52:01 10° SSW
ATLAS 3B R/B 3.2 19:39:47 10° SW 19:47:22 72° NW 19:54:39 10° NE
Cosmos 2219 Rocket 2.8 19:41:53 10° SW 19:47:29 62° NW 19:53:08 10° NNE
Cosmos 2360 Rocket 4.3 19:43:27 10° W 19:48:09 26° NW 19:52:53 10° NNE
METEOR-M 4.1 19:42:58 10° SSE 19:48:20 85° ENE 19:53:43 10° NNW
ALOS 2.5 19:46:13 10° SE 19:50:42 48° ENE 19:55:13 10° N
Meteor 1-22 Rocket 4.0 19:49:05 10° S 19:54:24 76° E 19:59:42 10° NNE
NOSS 0 Rocket 4.2 19:49:17 10° SW 19:55:29 74° NW 20:01:44 10° NNE
FREGAT/IRIS 3.4 19:53:44 10° S 19:56:47 56° W 19:59:52 10° NNW
FENGYUN 3A 3.8 19:52:08 10° SE 19:57:22 57° ENE 20:02:41 10° N
Meteor 1-24 Rocket 4.4 19:52:35 10° NNW 19:58:12 58° W 20:03:35 10° S
Cosmos 1766 Rocket 3.5 19:53:55 10° N 19:58:21 81° E 20:02:42 10° SSE
SJ-6B 4.0 19:57:08 10° S 20:01:00 48° W 20:04:59 10° NNW
Cosmos 1470 4.2 19:59:51 14° ESE 20:01:26 18° E 20:04:07 10° NE
Cosmos 1420 Rocket 4.1 19:56:43 10° NNW 20:02:00 64° ENE 20:07:16 10° SE
COSMOS 2455 3.9 19:57:57 10° WSW 20:03:46 48° NW 20:09:37 10° NNE
NOSS 3-2 (A) 3.7 19:58:45 10° SSW 20:04:41 51° ESE 20:11:12 10° NE
Cosmos 2369 Rocket 2.6 20:00:54 10° NNW 20:06:20 46° NE 20:10:43 15° ESE
USA 186 2.0 20:07:00 25° E 20:07:18 26° ENE 20:09:20 10° N
CZ-4C R/B 2.4 20:03:01 10° SW 20:08:33 82° NW 20:14:57 10° NE
H-2A R/B 3.9 20:08:55 14° ENE 20:10:17 15° NE 20:12:54 10° NNE
USA 238 DEB 3.8 20:03:23 10° SW 20:10:27 85° NW 20:17:34 10° NE
USA 238 3.8 20:03:29 10° SW 20:10:33 86° NW 20:17:40 10° NE
Cosmos 1758 3.5 20:06:50 10° S 20:10:48 51° E 20:14:49 10° NNE
Cosmos 1943 Rocket 3.2 20:08:34 10° NNW 20:13:31 30° NE 20:16:47 18° E
Cosmos 1076 Rocket 4.1 20:10:13 10° NNW 20:14:29 60° W 20:18:46 10° S
Cosmos 1603 4.3 20:10:24 10° S 20:15:31 35° ESE 20:20:40 10° NE
Helios 1B rocket 2.3 20:11:49 10° NNE 20:15:57 68° ESE 20:20:02 10° S
Cosmos 2034 Rocket 4.0 20:10:56 10° S 20:17:09 69° E 20:23:28 10° NNE
ERBS 3.2 20:14:11 10° WNW 20:17:32 41° NNE 20:19:29 21° ENE
Cosmos 1867 4.5 20:13:46 10° WSW 20:19:07 51° NW 20:24:29 10° NE
Cosmos 1464 Rocket 4.0 20:13:21 10° S 20:19:36 90° ESE 20:25:50 10° N
ASTEX 1 3.5 20:16:41 10° NNE 20:21:29 49° E 20:26:14 10° SSE
Cosmos 1674 2.8 20:20:08 10° N 20:23:58 57° ENE 20:26:54 16° SSE
Spot 2 Rocket 4.3 20:20:09 10° S 20:25:05 54° W 20:30:03 10° NNW
Cosmos-2242 3.0 20:20:59 10° S 20:25:19 65° E 20:29:42 10° NNE
Cosmos 2333 Rocket 3.4 20:21:53 10° WSW 20:27:26 45° NW 20:32:59 10° NNE
Cosmos 1346 3.2 20:26:48 10° NNW 20:29:48 73° WSW 20:32:16 14° S
Cosmos 1500 Rocket 3.5 20:28:05 10° N 20:32:31 68° ENE 20:36:15 14° SSE
Lacrosse 4 Rocket 4.3 20:31:49 10° NNW 20:33:13 11° N 20:34:37 10° N
H-2A R/B 4.1 20:34:03 11° ENE 20:35:02 11° NE 20:36:33 10° NNE
Cosmos 2151 3.4 20:31:49 10° N 20:35:50 41° ENE 20:37:16 31° ESE
Envisat 3.5 20:33:30 25° ESE 20:35:53 40° ENE 20:40:36 10° N
Cosmos 1842 Rocket 3.8 20:32:28 10° SSE 20:36:34 43° E 20:40:43 10° NNE
Cosmos 1939 Rocket 3.6 20:35:39 30° E 20:36:34 34° ENE 20:40:12 10° N
Cosmos 1328 4.2 20:34:44 10° N 20:38:33 43° ENE 20:39:38 34° ESE
Aureole 2 Rocket 3.7 20:37:07 10° SW 20:41:26 56° WNW 20:45:37 10° NNE
CENTAUR R/B 3.5 20:37:14 10° SSE 20:46:45 12° ENE 20:47:27 10° ENE
NOSS 3-2 (C) 3.5 20:36:11 10° SSW 20:42:19 68° SE 20:49:07 10° NE
Cosmos 2058 3.4 20:44:42 10° N 20:48:35 38° ENE 20:48:56 37° E
Meteor 1-29 3.6 20:45:53 10° N 20:49:22 58° WNW 20:52:49 10° SSW
Exosat Rocket 4.3 20:43:28 10° NNW 20:49:30 69° ENE 20:54:59 23° SE
Resurs 01 Rocket 3.5 20:46:20 10° SSW 20:50:16 31° W 20:54:15 10° NNW
SL-14 R/B 3.9 20:46:58 10° N 20:50:46 37° ENE 20:50:54 37° ENE
Cosmos 2237 Rocket 3.7 20:47:47 10° WSW 20:53:02 37° NW 20:58:18 10° NNE
SPOT 5 3.5 20:54:43 30° ENE 20:54:52 30° ENE 20:58:40 10° N
YAOGAN 6 4.3 20:55:46 21° NE 20:55:46 21° NE 20:57:48 10° NNE
CZ-2D R/B 4.2 20:54:05 10° S 20:57:52 47° W 21:01:40 10° NNW
ATLAS 5 CENTAUR R/B 1.8 20:55:02 10° SSW 20:59:54 71° SE 21:05:16 10° NE
Cosmos 1743 Rocket 4.5 20:56:16 10° NNW 21:00:36 49° W 21:04:51 10° SSW
Cosmos 1953 3.5 21:01:44 10° SSW 21:05:34 44° WNW 21:09:25 10° N
USA 215 3.1 21:05:01 16° ENE 21:10:29 72° SSE 21:17:00 10° SW
Cosmos 1626 4.3 21:07:40 10° NNE 21:08:57 16° NNE 21:08:57 16° NNE
SL-16 R/B 3.1 21:06:44 10° SW 21:12:16 50° NW 21:17:51 10° NNE
Cosmos 1110 Rocket 3.9 21:08:12 10° NNW 21:13:32 79° ENE 21:15:10 46° SE
GP-B 3.1 21:09:29 10° N 21:13:57 83° W 21:16:19 28° S
H-2A R/B 4.5 21:12:04 10° SSW 21:15:36 32° W 21:19:09 10° NNW
SeaSat 1 2.4 21:10:49 10° NE 21:15:44 60° ESE 21:20:37 10° SSW
Cosmos 1544 4.2 21:13:10 10° SSW 21:16:47 45° WNW 21:20:26 10° N
ERS-1 Rocket 2.9 21:14:56 37° SSE 21:16:57 89° WSW 21:22:02 10° NNW
MetOp-A 4.3 21:19:10 48° E 21:20:01 53° ENE 21:25:15 10° N
Cosmos 1655 Rocket 3.9 21:17:49 10° N 21:24:06 84° ENE 21:26:58 35° SSE
Cosmos 1656 Rocket 4.2 21:19:06 10° NNW 21:24:14 41° NE 21:24:52 39° ENE
ARGOS 3.7 21:24:38 40° ENE 21:24:53 40° ENE 21:29:57 10° N
Sich 1 3.6 21:21:06 10° N 21:24:40 43° NE 21:24:40 43° NE
BREEZE-M DEB (TANK) 3.7 21:16:09 10° WSW 21:26:03 64° S 21:26:54 54° SE
CZ-4 DEB 4.0 21:28:43 39° NW 21:28:43 39° NW 21:30:54 10° NNW
ALOS 4.3 21:24:30 10° SSW 21:28:23 26° W 21:32:19 10° NW
Cosmos 2279 Rocket 4.0 21:28:27 47° SE 21:29:51 58° E 21:35:57 10° NNE
Cosmos 1470 3.7 21:35:10 24° SW 21:37:13 47° WNW 21:41:01 10° N
Cosmos 1703 4.4 21:34:28 10° N 21:36:55 34° NNE 21:36:55 34° NNE
ATLAS 3B R/B 4.1 21:32:26 10° W 21:39:16 36° NNW 21:45:47 10° NE
NOAA 11 4.3 21:40:59 53° ENE 21:40:59 53° ENE 21:46:16 10° N
Cosmos 2266 Rocket 4.2 21:35:40 10° N 21:41:54 52° ENE 21:42:18 51° E
Cosmos 1805 Rocket 3.6 21:39:17 10° NNW 21:43:35 78° WNW 21:43:35 78° WNW
Cosmos 2026 Rocket 4.2 21:38:52 10° NNW 21:44:54 66° W 21:47:56 31° SSW
H-2A R/B 2.2 21:46:04 73° N 21:46:04 73° N 21:50:10 10° NNW
Cosmos 724 4.4 21:40:07 10° SW 21:46:07 76° NW 21:52:18 10° NE
Cosmos 1331 Rocket 4.2 21:43:13 10° NNW 21:48:31 66° WSW 21:49:20 57° SSW
Cosmos 1428 Rocket 4.4 21:43:12 10° N 21:49:30 87° W 21:51:09 53° S
Cosmos 1634 Rocket 4.2 21:43:57 10° SSW 21:50:10 68° WNW 21:56:23 10° N
Cosmos 1733 4.4 21:49:32 37° WSW 21:50:15 41° WNW 21:53:57 10° N
Cosmos 2369 Rocket 3.2 21:45:06 10° NW 21:50:21 40° WSW 21:52:32 29° SSW
ERBS 4.3 21:51:02 10° WNW 21:52:54 29° WNW 21:52:54 29° WNW
NOSS 3-2 (A) 4.2 21:49:22 10° WSW 21:55:36 54° NNW 22:02:31 10° NE
Cosmos 1943 3.1 21:56:26 75° ENE 21:56:26 75° ENE 22:01:41 10° NNE
Cosmos 1943 Rocket 2.2 21:52:10 10° NW 21:57:48 71° WSW 21:58:18 67° SSW
CZ-4C R/B 3.8 21:52:35 10° W 21:57:58 36° NNW 22:04:04 10° NE
Cosmos 1633 Rocket 3.8 21:54:04 10° N 21:57:19 49° N 21:57:19 49° N
Cosmos 1302 Rocket 3.9 21:53:48 10° NNW 21:58:54 83° WNW 21:58:54 83° WNW
Cosmos 1603 4.4 21:53:51 10° SW 21:59:28 53° NW 22:05:08 10° NNE
Meteor 2-1 Rocket 4.2 22:03:14 78° S 22:03:40 90° E 22:09:37 10° NNE
Terra 3.3 22:05:50 27° NNE 22:05:50 27° NNE 22:08:32 10° N
Cosmos 2221 3.7 22:09:42 38° N 22:09:42 38° N 22:12:31 10° N
H-2A R/B 2.9 22:14:42 40° NNE 22:14:42 40° NNE 22:18:17 10° N
MetOp-B 4.3 22:13:42 66° WSW 22:13:46 66° WSW 22:19:08 10° NNW
Lacrosse 4 Rocket 4.1 22:11:47 10° NNW 22:13:57 13° NNE 22:14:28 13° NNE
Envisat 4.2 22:13:43 32° SW 22:14:57 36° W 22:19:39 10° NNW
Nimbus 7 Rocket 4.4 22:24:11 10° NNE 22:30:02 79° NW 22:30:02 79° NW
CENTAUR R/B 3.0 22:25:33 10° SW 22:33:45 52° NE 22:39:07 10° NE
SPOT 5 4.2 22:33:58 31° WNW 22:33:58 31° WNW 22:36:56 10° NNW
SPOT 1/Viking Rocket 4.2 22:37:21 51° NW 22:37:21 51° NW 22:41:29 10° NNW
ATLAS 5 CENTAUR R/B 3.3 22:40:17 10° W 22:45:01 37° NNW 22:47:31 25° NNE
Cosmos 1697 Rocket 4.2 22:40:34 10° NNW 22:44:39 26° NNE 22:44:39 26° NNE
SeaSat 1 4.1 22:48:41 10° NNE 22:53:03 32° NW 22:57:23 10° WSW
USA 215 3.5 22:52:23 57° NNE 22:53:31 66° NNW 22:59:58 10° W
Cosmos 2285 Rocket 4.4 22:53:02 10° NNW 22:58:12 59° N 22:58:12 59° N
ARGOS 4.4 23:06:09 37° WNW 23:06:09 37° WNW 23:10:17 10° NNW
Cosmos 1980 Rocket 3.8 23:17:53 10° NNW 23:21:31 27° NNE 23:21:31 27° NNE
ATLAS 3B R/B 4.0 23:25:15 10° NW 23:31:51 35° NNE 23:33:47 30° NE
Terra 4.2 23:44:44 20° NW 23:44:44 20° NW 23:46:25 10° NNW
CZ-4C R/B 4.0 23:42:37 10° NW 23:48:13 32° N 23:50:18 27° NE
SL-16 R/B 4.1 23:46:21 10° NNW 23:49:56 23° NNE 23:49:56 23° NNE
H-2A R/B 4.2 23:55:20 20° NW 23:55:20 20° NW 23:57:22 10° NW
Lacrosse 4 Rocket 4.5 23:49:57 10° NNW 23:50:48 15° NNW 23:50:48 15° NNW
